Location: Camp Four Station
(36.8561°N, 119.1059°W)
Time: 14:22:46
(UTC+00:00)

Daily predictions for brighter satellites

Satellite Brightness Start Highest point End
(mag) Time Altitude Azimuth Time Altitude Azimuth Time Altitude Azimuth
STARLINK-1017 3.9 12:04:11 48° WNW 12:04:38 51° NW 12:08:40 10° NE
Lacrosse 5 rocket 3.1 12:05:34 17° NNW 12:05:34 17° NNW 12:08:08 10° N
Cosmos 1908 Rocket 3.6 12:01:27 10° NNW 12:05:43 53° W 12:06:18 49° WSW
STARLINK-81 3.9 12:06:44 45° WNW 12:07:10 48° NW 12:11:05 10° NE
STARLINK-54 4.1 12:08:32 40° WNW 12:09:02 42° NW 12:12:52 10° NE
STARLINK-77 4.0 12:09:55 41° WNW 12:10:30 45° NW 12:14:23 10° NE
CZ-2C R/B 2.2 12:06:13 10° NNE 12:10:51 83° ESE 12:14:44 14° S
STARLINK-25 4.1 12:11:31 40° WNW 12:12:10 43° NW 12:16:02 10° NE
Cosmos 2142 Rocket 4.4 12:06:36 10° N 12:12:57 74° W 12:19:13 10° S
Cosmos 1544 4.2 12:10:17 10° N 12:13:46 44° E 12:17:15 10° SSE
STARLINK-71 4.3 12:13:20 35° WNW 12:14:02 38° NW 12:17:49 10° NNE
STARLINK-79 4.2 12:14:41 36° WNW 12:15:28 41° NW 12:19:18 10° NE
Okean 1-7 3.3 12:15:08 39° WSW 12:15:58 44° W 12:20:10 10° N
Cosmos 2333 Rocket 2.7 12:10:58 10° NW 12:16:04 36° WSW 12:21:09 10° S
STARLINK-78 4.2 12:16:19 34° WNW 12:17:10 39° NW 12:20:58 10° NE
GPS 2-04 Rocket1 2.6 12:16:50 47° WSW 12:17:38 60° S 12:21:18 10° ESE
STARLINK-57 4.4 12:18:01 32° WNW 12:18:57 36° NW 12:22:42 10° NNE
Cosmos 1515 3.5 12:17:04 25° SSW 12:19:10 78° W 12:22:59 10° N
STARLINK-1048 4.4 12:18:31 32° WNW 12:19:36 38° NW 12:23:29 10° NNE
STARLINK-49 4.4 12:19:27 32° WNW 12:20:28 37° NW 12:24:13 10° NNE
STARLINK-27 4.4 12:21:03 30° WNW 12:22:08 36° NW 12:25:52 10° NNE
Cosmos 1743 3.0 12:19:15 10° NNW 12:22:57 43° W 12:24:45 25° SSW
STARLINK-74 4.4 12:22:38 29° WNW 12:23:46 35° NW 12:27:30 10° NNE
STARLINK-1037 4.5 12:21:25 19° SSW 12:24:00 46° SE 12:27:58 10° ENE
IDEFIX/ARIANE 42P 3.6 12:19:55 10° NNW 12:24:08 26° WNW 12:25:10 24° W
Okean 1 4.0 12:23:56 32° W 12:24:13 33° WNW 12:27:50 10° NNW
STARLINK-1049 4.5 12:23:19 28° WNW 12:24:36 35° NW 12:28:26 10° NNE
STARLINK-1027 4.3 12:22:44 20° SSW 12:25:25 52° SE 12:29:33 10° ENE
STARLINK-39 4.5 12:24:14 28° WNW 12:25:28 34° NW 12:29:09 10° NNE
USA 238 DEB 3.6 12:21:55 18° SW 12:27:05 81° WNW 12:33:57 10° NNE
USA 238 3.6 12:22:00 18° SW 12:27:11 82° WNW 12:34:03 10° NNE
CZ-4B R/B 3.1 12:29:00 19° NW 12:29:00 19° NW 12:30:25 10° NW
Cosmos 1689 Rocket 2.2 12:28:24 18° S 12:30:23 48° W 12:33:19 10° NNW
Cosmos 1975 2.7 12:26:46 10° NNW 12:30:45 71° W 12:34:45 10° S
CZ-4B R/B 4.1 12:27:46 10° NNE 12:31:50 69° ESE 12:35:40 10° S
STARLINK-1059 4.2 12:28:57 18° SSW 12:31:50 54° SE 12:35:53 10° NE
SL-4 R/B 2.0 12:29:22 11° NW 12:33:12 90° SW 12:37:36 10° SE
PAYLOAD A 4.4 12:31:32 10° N 12:36:44 47° WNW 12:41:39 11° SW
STARLINK-1057 4.0 12:33:44 17° SSW 12:36:48 61° SE 12:40:53 10° NE
Meteor 2-4 Rocket 3.8 12:31:22 10° S 12:37:17 88° W 12:43:15 10° N
STARLINK-1034 3.8 12:38:30 16° SW 12:41:45 68° SE 12:45:52 10° NE
USA 234 3.8 12:36:16 10° SSE 12:42:09 36° SW 12:48:06 10° WNW
ATLAS CENTAUR R/B 1.0 12:43:53 31° WNW 12:44:02 31° NW 12:45:52 10° NNE
Cosmos 2237 Rocket 2.1 12:38:43 10° NNW 12:44:20 67° WSW 12:49:58 10° S
Cosmos 1300 Rocket 3.9 12:41:38 10° N 12:45:56 69° E 12:50:12 10° SSE
Cosmos 389 Rocket 2.5 12:43:02 10° SSW 12:46:36 60° W 12:50:09 10° N
STARLINK-1068 3.7 12:43:19 15° SW 12:46:44 76° SE 12:50:52 10° NE
ADEOS 4.2 12:44:36 10° N 12:49:20 36° WNW 12:54:03 10° SW
Cosmos 1484 Rocket 2.7 12:48:33 10° NNE 12:52:26 90° W 12:56:12 10° SSW
Nadezhda 4 Rocket 4.0 12:49:24 10° SSW 12:55:39 68° W 13:01:58 10° N
STARLINK-1031 3.6 12:52:17 13° SW 12:55:55 78° NW 13:00:06 10° NE
STARLINK-1060 3.6 12:52:53 12° SW 12:56:40 87° NW 13:00:50 10° NE
NOSS 3-2 (A) 3.6 12:51:47 12° SW 12:56:50 50° NW 13:02:59 10° NNE
H-2A R/B 2.3 12:53:15 10° N 12:57:26 79° WNW 13:01:26 10° SSW
Cosmos 2219 4.3 12:53:47 14° WSW 12:57:37 27° WNW 13:02:26 10° N
GENESIS II 4.2 12:53:52 10° SW 12:57:53 75° WNW 13:01:59 10° NNE
CZ-4B R/B 3.0 12:54:22 10° N 12:58:33 73° WNW 13:02:54 10° SSW
Cosmos 1378 Rocket 4.5 12:54:35 10° S 12:58:45 52° E 13:02:58 10° NNE
Cosmos 2279 Rocket 4.5 12:53:22 10° NNW 12:59:00 37° W 13:04:38 10° SSW
NOSS 0 Rocket 4.5 12:55:25 10° NW 13:00:52 34° WSW 13:06:17 10° SSW
STARLINK-1030 3.6 12:57:39 11° SW 13:01:38 79° NW 13:05:47 10° NE
Cosmos 2297 Rocket 3.0 12:57:24 11° WSW 13:02:12 32° WNW 13:07:15 10° N
Cosmos 1048 Rocket 4.0 12:58:21 10° NNW 13:03:38 69° WSW 13:08:57 10° S
ATLAS 5 CENTAUR R/B 1.9 12:58:33 10° SSW 13:05:10 86° ESE 13:07:43 10° NE
Cosmos 1125 Rocket 3.9 13:00:45 10° SW 13:05:47 45° WNW 13:10:54 10° N
STARLINK-1020 3.6 13:02:30 10° SW 13:06:38 71° NW 13:10:46 10° NE
Cosmos 494 Rocket 4.4 13:02:06 10° NNW 13:07:22 72° ENE 13:12:37 10° SSE
Cosmos 2263 Rocket 4.4 13:03:12 10° SSE 13:07:56 28° ESE 13:12:42 10° NE
STARLINK-1052 3.7 13:07:31 10° WSW 13:11:37 64° NW 13:15:45 10° NE
COSMOS 2428 4.4 13:17:09 10° W 13:18:19 11° W 13:19:27 10° WSW
NOSS 3-2 (C) 3.6 13:17:10 10° SW 13:22:41 53° NW 13:28:53 10° NNE
Centaur D-1A AC-31 4.4 13:53:56 10° WSW 14:49:29 51° S 14:55:55 10° ESE
